[Iaude] MPEC T146: 2023 TC5 [a=1.55,e=0.32,i=13.8,H=24.7]
    mpec at marsden.cfa.harvard.edu 
    mpec at marsden.cfa.harvard.edu
       
    Wed Oct 11 01:15:15 EDT 2023
    
    
  
M.P.E.C. 2023-T146                             Issued 2023 October 11, 05:13 UT
     The Minor Planet Electronic Circulars contain information on unusual
         minor planets, routine data on comets and natural satellites,
         and occasional editorial announcements.  They are published
    on behalf of Division F of the International Astronomical Union by the
          Minor Planet Center, Smithsonian Astrophysical Observatory,
                          Cambridge, MA 02138, U.S.A.
			  
             Prepared using the Tamkin Foundation Computer Network
                              MPC at CFA.HARVARD.EDU
            URL https://www.minorplanetcenter.net/    ISSN 1523-6714
                                    2023 TC5                                    
Observations:
     K23T05C  C2023 10 07.39071023 07 40.351-01 57 29.94         21.39GVET146F52
     K23T05C  C2023 10 07.40101323 07 37.806-01 56 06.76         21.20GVET146F52
     K23T05C  C2023 10 07.42163623 07 32.735-01 53 20.57         21.00GVET146F52
     K23T05C  C2023 10 08.30652723 04 24.982+00 07 09.17         21.60GVET146F51
     K23T05C  C2023 10 08.31886923 04 21.936+00 08 51.04         20.79GVET146F51
     K23T05C  C2023 10 08.33120123 04 18.851+00 10 33.30         20.91GVET146F51
     K23T05C  C2023 10 08.34352123 04 15.779+00 12 15.09         20.58GVET146F51
     K23T05C* C2023 10 10.32694022 57 03.749+04 52 15.37         20.72wXET146F51
     K23T05C  C2023 10 10.35362422 56 57.033+04 56 04.92         21.55wXET146F51
     K23T05C  C2023 10 10.36693222 56 53.668+04 57 59.93         21.04wXET146F51
     K23T05C  C2023 10 10.49438022 56 22.290+05 16 19.42         21.19GVET146F51
     K23T05C  C2023 10 10.49519722 56 22.097+05 16 26.12         20.85GVET146F51
     K23T05C KB2023 10 10.81314422 55 19.16 +06 01 56.6          21.4 GVET146I93
     K23T05C KB2023 10 10.82270122 55 16.84 +06 03 19.9          20.5 GVET146I93
     K23T05C KB2023 10 10.83304122 55 14.35 +06 04 49.5                VET146I93
     K23T05C KC2023 10 10.94171 22 54 47.22 +06 20 34.1          21.0 GVET146204
     K23T05C HC2023 10 10.96434 22 54 41.77 +06 23 51.6                VET146204
     K23T05C KC2023 10 11.11522322 54 11.65 +06 45 55.7          21.0 VuET146H21
     K23T05C KC2023 10 11.11815122 54 10.91 +06 46 21.3          20.7 VuET146H21
     K23T05C KC2023 10 11.12107622 54 10.21 +06 46 46.4          21.3 VuET146H21
Observer details:
204 Schiaparelli Observatory.  Observers L. Buzzi, G. Galli.  0.84-m f/3.5
    reflector + CCD.
F51 Pan-STARRS 1, Haleakala.  Observers J. Bulger, T. Lowe, P. Minguez, A.
    Schultz, I. Smith, K. Chambers.  Measurers K. Chambers, T. de Boer, J.
    Fairlamb, H. Gao, M. Huber, C.-C. Lin, E. Magnier, Y. Ramanjooloo, R.
    Wainscoat, R. Weryk, J. Bulger, T. Lowe, P. Minguez, A. Schultz, I. Smith,
    S. Chastel.  1.8-m Ritchey-Chretien + CCD.
F52 Pan-STARRS 2, Haleakala.  Observers J. Bulger, T. Lowe, P. Minguez, A.
    Schultz, I. Smith.  Measurers K. Chambers, T. de Boer, J. Fairlamb, H.
    Gao, M. Huber, C.-C. Lin, E. Magnier, Y. Ramanjooloo, R. Wainscoat, R.
    Weryk.  1.8-m Ritchey-Chretien + CCD.
H21 Astronomical Research Observatory, Westfield.  Observer R. Holmes.
    Measurers T. Linder, R. Holmes, L. Horn.  1.3-m f/4.0 astrograph + CCD.
I93 St Pardon de Conques.  Observer F. Losse.  0.40-m f/3.7 reflector + CMO.
Orbital elements:
2023 TC5                                                 Earth MOID = 0.0886 AU
Epoch 2023 Sept. 13.0 TT = JDT 2460200.5                Veres                   
M 330.86274              (2000.0)            P               Q                  
n   0.50910584     Peri.   34.93385     +0.71410165     -0.69888188             
a   1.5533309      Node     9.72452     +0.57560839     +0.55344378             
e   0.3229521      Incl.   13.79819     +0.39841412     +0.45306081             
P   1.94           H   24.75          G   0.15           U   9                  
Residuals in seconds of arc
231007 F52  0.0   0.0     231010 F51  0.2-  0.5+    231010 I93  0.1+  0.2-
231007 F52  0.0   0.1+    231010 F51  0.1+  0.4-    231010 204  0.3-  0.1-
231007 F52  0.0   0.1-    231010 F51  0.1-  0.2-    231010 204  0.1-  0.7+
231008 F51  0.2-  0.1+    231010 F51  0.1+  0.1+    231011 H21  0.1+  0.1+
231008 F51  0.2+  0.1-    231010 F51  0.1+  0.2-    231011 H21  0.1-  0.1+
231008 F51  0.0   0.1+    231010 I93  0.2+  0.4+    231011 H21  0.2+  0.3-
231008 F51  0.0   0.1-    231010 I93  0.0   0.4+
Ephemeris:
2023 TC5                 a,e,i = 1.55, 0.32, 14                  q = 1.0517
Date    TT    R. A. (2000) Decl.     Delta      r    Elong.  Phase     V
2023 09 11    00 17 59.8 -33 11 04   0.2036  1.1847   148.1    26.7    22.9
...
2023 09 26    23 45 12.6 -21 53 55   0.1372  1.1300   156.5    20.7    21.7
...
2023 10 04    23 19 39.1 -09 05 44   0.1134  1.1055   156.6    21.1    21.3
...
2023 10 10    22 58 15.0 +04 05 36   0.1037  1.0897   149.8    27.5    21.2
2023 10 11    22 54 36.2 +06 29 49   0.1029  1.0873   148.1    29.0    21.3
2023 10 12    22 50 57.2 +08 55 51   0.1024  1.0850   146.4    30.6    21.3
...
2023 10 18    22 29 22.6 +23 27 35   0.1041  1.0726   134.9    41.2    21.6
...
2023 10 26    22 03 07.7 +39 56 26   0.1176  1.0603   121.4    53.2    22.2
...
2023 11 10    21 27 14.8 +59 01 59   0.1605  1.0517   108.2    63.5    23.1
M. P. C. Staff               (C) Copyright 2023 MPC           M.P.E.C. 2023-T146
    
    
More information about the Iaude
mailing list